Cloud_Cover
0 0 0 0 0 0 0 0 0 0 0 0 5 5 5 5 7 99 100 100 100 100 100 100 100 60 38 32 100 8 0 0 0 0 0 0 0 0 0 0 7 5 76
0 0 0 0 0 0 0 0 0 0 0 0 5 69 38 5 2 28 28 29 69 96 36 75 76 28 86 37 72 0 0 0 0 0 0 0 0 0 0 0 0 1 100
0 0 0 0 0 0 0 0 0 0 0 0 5 7 11 5 0 28 6 17 41 18 14 98 99 100 100 5 0 0 0 0 0 0 0 0 0 0 0 0 0 5 100
0 0 0 0 0 0 0 0 0 0 5 5 4 5 3 0 5 23 30 100 85 100 16 95 100 75 96 1 0 0 0 0 0 0 0 0 0 0 0 0 0 13 52
0 0 0 0 0 0 0 0 0 4 1 0 1 2 0 2 43 34 100 100 78 27 99 99 100 87 71 0 0 0 0 0 0 0 0 0 0 0 0 0 0 22 89
0 0 0 0 0 0 0 0 5 6 1 4 6 2 47 100 100 100 100 100 45 69 100 100 87 6 0 0 0 0 0 0 0 0 0 0 0 0 0 0 0 53 94
0 0 0 0 0 0 0 0 4 2 4 6 4 97 100 100 100 89 100 99 10 100 100 13 36 0 0 0 0 0 0 0 0 0 0 0 0 0 0 0 0 68 72
0 0 0 0 0 0 0 0 0 0 1 0 100 100 100 100 100 100 100 99 96 100 73 0 0 0 0 0 0 0 0 0 0 0 0 0 0 0 0 0 0 8 100
0 0 0 0 0 0 0 0 0 1 0 90 100 100 100 100 98 100 100 84 100 95 4 0 0 0 0 0 0 0 0 0 0 0 0 0 0 0 0 0 0 4 100
0 0 0 0 0 5 2 0 0 3 34 90 100 100 100 100 100 100 100 100 96 0 9 7 0 0 0 0 0 0 0 0 0 0 0 0 0 0 0 0 0 5 100
0 0 0 4 2 4 0 11 40 67 47 100 100 100 88 77 98 100 100 74 0 0 0 0 0 0 0 0 0 0 0 0 0 0 0 0 0 0 0 0 0 6 100
0 0 1 5 76 4 8 50 61 64 90 100 100 100 100 100 96 100 98 5 0 0 0 0 0 0 0 0 0 0 0 0 0 0 0 0 0 0 0 0 0 5 100
4 0 5 5 5 14 38 89 91 56 100 100 100 100 100 100 100 100 6 0 4 2 0 0 0 0 0 0 0 0 0 0 0 0 0 0 0 0 0 0 0 6 100
12 29 5 11 62 67 67 45 45 60 98 100 100 100 100 100 100 94 5 12 6 1 0 0 0 0 0 0 0 0 0 0 0 0 0 3 0 0 0 0 0 0 100
5 38 38 86 82 100 94 65 30 6 4 98 90 31 68 69 29 14 12 59 30 0 0 0 0 0 0 0 0 0 0 0 0 0 0 0 0 0 0 0 0 0 72
97 100 93 100 100 100 82 94 100 68 99 84 2 0 12 5 8 63 99 100 75 4 0 0 0 0 0 0 0 0 0 0 0 0 0 0 0 0 0 0 0 0 16
100 95 100 100 100 88 93 100 100 99 100 100 8 0 5 5 16 99 100 100 100 6 0 0 0 0 0 0 0 0 0 0 0 0 0 0 0 0 0 0 0 0 0
34 85 98 100 86 51 100 100 100 100 97 100 97 36 6 5 15 99 100 100 95 5 0 0 0 0 2 0 0 0 0 0 0 0 0 0 0 0 0 0 0 0 0
47 100 89 66 30 58 100 100 100 100 76 60 31 53 66 100 97 100 100 100 72 1 2 4 5 4 0 0 0 0 0 0 0 0 0 0 0 0 0 0 0 0 0
36 87 100 100 91 100 100 100 100 100 58 5 73 100 100 100 100 100 100 100 31 4 5 5 5 5 2 0 0 0 0 0 0 0 0 0 0 0 0 0 0 0 0
100 100 100 100 100 100 100 100 100 100 72 100 100 100 100 100 100 100 100 92 68 5 5 8 47 6 5 0 0 0 0 0 0 0 0 0 0 0 0 0 0 0 0
67 99 80 100 100 100 100 100 100 100 100 100 100 100 100 100 100 100 100 100 94 70 15 7 5 5 5 1 0 0 0 0 0 0 0 0 0 0 0 0 0 0 0
59 78 100 78 100 100 100 100 100 100 100 100 100 100 100 100 79 60 100 100 84 17 98 51 5 5 3 5 2 0 0 0 0 0 0 0 0 0 0 0 0 0 0
100 100 100 92 99 100 100 100 100 100 100 100 100 100 100 36 10 51 94 89 77 13 89 100 53 58 5 4 3 0 0 0 0 0 0 0 0 0 0 0 0 0 0
100 100 100 98 99 99 100 100 100 100 100 100 100 100 100 42 5 5 5 7 66 18 100 100 34 79 5 39 5 5 0 0 1 5 3 0 0 0 1 1 0 0 0
100 100 100 100 100 100 100 100 100 100 100 100 100 100 100 99 36 10 2 10 7 96 100 100 71 26 30 5 50 32 4 0 2 7 45 4 0 0 0 0 4 0 5